Regional Weather Roundup
Issued by NWS Bismarck, ND

Home | Current Version | Previous Version | Text Only | Print | Product List | Glossary On
Versions: 1 2 3 4 5 6 7 8 9 10 11 12 13 14 15 16 17 18 19 20 21 22 23 24 25 26 27 28 29 30 31 32 33 34 35 36 37 38 39 40 41 42 43 44 45 46 47 48 49 50
000
ASUS43 KBIS 110020
RWRBIS

NWR BROADCAST TEXT
NATIONAL WEATHER SERVICE BISMARCK ND
700 PM CDT THU JUL 10 2014

NOTE: "FAIR" INDICATES FEW OR NO CLOUDS BELOW 12,000 FEET WITH NO
SIGNIFICANT WEATHER AND/OR OBSTRUCTIONS TO VISIBILITY.


CITY           SKY/WX    TMP DP  RH WIND       PRES   REMARKS
WILLISTON      MOSUNNY   94  50  22 W10       29.70F HX  91
MINOT          SUNNY     80  63  55 S12       29.74F
MINOT AFB      SUNNY     80  66  63 S12       29.73F
BISMARCK       SUNNY     77  66  68 S14       29.80S
DICKINSON      SUNNY     81  67  62 S13       29.78S
GARRISON         N/A     80  66  62 S10       29.77F
HETTINGER ARPT SUNNY     83  67  58 SE8       29.81F
JAMESTOWN      CLOUDY    73  65  75 S12       29.82F
CARRINGTON     FAIR      75  66  73 S15       29.82F
CROSBY         FAIR      81  70  69 NW21G28   29.71R
HARVEY         FAIR      75  66  73 S10       29.79F
HAZEN          FAIR      81  66  61 S9        29.78F
LINTON         FAIR      79  68  69 S9        29.81F
MANDAN         FAIR      77  66  69 SE9       29.81S
RUGBY          FAIR      77  66  69 S12G21    29.76F
STANLEY          N/A     79  64  61 S12       29.75F
TIOGA          FAIR      79  72  78 S13G25    29.76F
WATFORD CITY   FAIR      82  68  61 SE14      29.71F
$$

CITY           SKY/WX    TMP DP  RH WIND       PRES   REMARKS
GRAND FORKS    CLOUDY    79  64  60 SE12      29.80F
GRAND FORKS AF CLOUDY    77  66  68 SE10      29.81F
DEVILS LAKE    MOSUNNY   77  63  61 S18       29.78S
FARGO          HVY RAIN  70  68  93 N6        29.85R VSB 1/2
CANDO          FAIR      75  63  64 S14       29.79F
CAVALIER       FAIR      79  63  57 S16       29.79F
GRAFTON        FAIR      79  63  57 S10G17    29.80F
GWINNER        PTCLDY    75  73  94 SE8       29.84F
LANGDON        FAIR      77  64  65 S14G22    29.80F
ROLLA          FAIR      75  64  69 S17       29.79F
WALHALLA       FAIR      79  63  57 S14G20      N/A
$$

CITY           SKY/WX    TMP DP  RH WIND       PRES   REMARKS
ABERDEEN       PTSUNNY   81  66  60 S17G24    29.81F
MOBRIDGE       MOSUNNY   80  67  64 S10       29.78F
BUFFALO          N/A     85  66  53 S14       29.76S
RAPID CITY     PTSUNNY   77  62  59 SW5       29.85F
GLASGOW        SUNNY     88  54  31 N9G22     29.78S
SIDNEY         SUNNY     91  55  29 W9        29.74R
WOLF POINT     SUNNY     89  59  36 N17       29.77R
GLENDIVE       SUNNY     90  52  27 NW15G22   29.78S
MILES CITY     SUNNY     93  46  19 N16       29.77R
BAKER          SUNNY     91  54  28 NW9       29.81S
$$

CITY           SKY/WX    TMP DP  RH WIND       PRES   REMARKS
BILLINGS       MOSUNNY   92  41  17 E9        29.84S
GREAT FALLS    SUNNY     90  35  14 SW10      29.80F
REGINA         SUNNY     75  59  57 NW14      29.79S
ESTEVAN        PTSUNNY   81  68  65 N16       29.71
$$



USA.gov is the U.S. government's official web portal to all federal, state and local government web resources and services.